Regional Weather Roundup
Issued by NWS

Home | Current Version | Previous Version | Text Only | Print | Product List | Glossary Off
Versions: 1 2 3 4 5 6 7 8 9 10 11 12 13 14 15 16 17 18 19 20 21 22 23 24 25 26 27

000
ASUS45 KBOU 212107
RWRCO

WEATHER ROUNDUP FOR COLORADO
NATIONAL WEATHER SERVICE DENVER/BOULDER CO
300 PM MDT SUN MAY 21 2017

NOTE: "FAIR" INDICATES FEW OR NO CLOUDS BELOW 12000 FEET WITH NO
SIGNIFICANT WEATHER AND/OR OBSTRUCTIONS TO VISIBILITY.

COZ001>005-013-030-031-212200-
...NORTHWEST COLORADO...

CITY           SKY/WX    TMP DP  RH WIND       PRES   REMARKS
CRAIG          PTSUNNY   60  32  34 SW8       30.19S
HAYDEN         FAIR      55  30  38 SW17G23   30.21S
MEEKER         PTSUNNY   61  31  32 VRB3      30.20F
RABBIT EARS PA MOCLDY    36  32  87 CALM      30.34F
STEAMBOAT SPGS PTSUNNY   50  38  63 NE8       30.23S
WALDEN           N/A     50  30  46 E5        30.26F
$$

COZ006>008-011-212200-
...WEST CENTRAL VALLEYS...

CITY           SKY/WX    TMP DP  RH WIND       PRES   REMARKS
GRAND JUNCTION FAIR      71  28  20 W13       30.12F
MONTROSE       FAIR      66  26  22 NW7       30.15F
EAGLE          PTSUNNY   61  27  27 NW14G20   30.20F
RIFLE          PTSUNNY   66  24  20 W8        30.13F
DELTA          PTSUNNY   77  24  14 SW12G21   30.12F
NUCLA          FAIR      70  27  19 NW3       30.19F
$$

COZ017>023-064>068-212200-
...SOUTHWEST COLORADO...

CITY           SKY/WX    TMP DP  RH WIND       PRES   REMARKS
DURANGO        FAIR      69  22  16 W14       30.16F
CORTEZ         FAIR      70  24  17 W6        30.15F
PAGOSA SPRINGS FAIR      65  13  13 S12       30.21F
TELLURIDE      PTSUNNY   55  24  30 W7        30.31S
WOLF CREEK PAS CLOUDY    37  21  52 SW14      30.45F
$$

COZ009-010-012-014-032>034-037-058>063-212200-
...CENTRAL COLORADO...

CITY           SKY/WX    TMP DP  RH WIND       PRES   REMARKS
ASPEN          PTSUNNY   58  27  30 N12G18    30.21F
BUENA VISTA    CLOUDY    59  19  21 NW12      30.21F
COPPER MTN     CLOUDY    37  23  56 SW13      30.40S
BERTHOUD PASS  CLOUDY    28  19  69 W17G25    30.40R WCI  16
COTTONWOOD PAS CLOUDY    54  18  24 E5        30.31S
GUNNISON       FAIR      60  25  26 W15G23    30.21F
KREMMLING      DRIZZLE   54  36  50 NW3G17    30.27R
LEADVILLE      CLOUDY    47  19  33 VRB3      30.29F
MONARCH PASS   FAIR      37  18  44 W28G37    30.50S
SALIDA         FAIR      66  13  13 W7G20     30.25F
SUNLIGHT       PTSUNNY   43  27  52 SW6       30.39F
WILKERSON PASS PTSUNNY   43  19  39 W3        30.40S
$$

COZ069>075-212200-
...SAN LUIS VALLEY/SANGRE DE CRISTO MOUNTAINS...

CITY           SKY/WX    TMP DP  RH WIND       PRES   REMARKS
ALAMOSA        FAIR      66  22  18 VRB7      30.17F
DEL NORTE      PTSUNNY   61  26  25 SE10      30.21F
LA VETA PASS   FAIR      54  19  26 MISG      30.44S
SAGUACHE       PTSUNNY   61  27  27 SW10      30.21S
$$

COZ035-036-038>040-212200-
...NORTHERN COLORADO FRONT RANGE...

CITY           SKY/WX    TMP DP  RH WIND       PRES   REMARKS
DENVER INTL AP PTSUNNY   65  35  33 S7        30.15F
DMNS CITY PARK   N/A     66  28  23 SE5G18    30.13F
AURORA         PTSUNNY   65  32  29 E9        30.16F
FRONT RANGE AP PTSUNNY   64  36  34 E8        30.16F
ERIE MUNI ARPT FAIR      67  33  27 SE8       30.13F
BOULDER MUN AP FAIR      64  34  32 E7        30.14F
CENTENNIAL     PTSUNNY   62  29  28 CALM      30.15F
BROOMFIELD     PTSUNNY   66  32  28 CALM      30.15F
FORT COLLINS   LGT RAIN  59  40  49 N13       30.18S
LONGMONT       PTSUNNY   66  34  31 E3        30.15F
$$

COZ041-046-047-076>085-087-088-212200-
...PIKES PEAK/PALMER DIVIDE AND SOUTHERN FOOTHILLS...

CITY           SKY/WX    TMP DP  RH WIND       PRES   REMARKS
COLO. SPRINGS  PTSUNNY   64  33  31 SE10      30.18F
A. F. ACADEMY  CLOUDY    62  30  30 W7        30.17F
SCHRIEVER AFB  PTSUNNY   61  31  32 SE7       30.18F
CHEYENNE MTN   PTSUNNY   56  32  40 SE3       30.15F
ELLICOTT       PTSUNNY  N/A N/A N/A VRB6      30.17F
FALCON         PTSUNNY   60  29  30 SE7       30.21F
FORT CARSON    FAIR      64  33  31 S3        30.16F
LIMON          PTSUNNY   65  36  34 VRB5      30.16F
MONUMENT HILL  FAIR      57  30  35 N8        30.22S
CANON CITY     NOT AVBL
WALSENBURG     FAIR      70  41  35 NE8       30.15F
TRINIDAD       FAIR      70  35  27 VRB7      30.13F
$$

COZ042>045-048>051-090-091-212200-
...NORTHEAST COLORADO...

CITY           SKY/WX    TMP DP  RH WIND       PRES   REMARKS
GREELEY ARPT   FAIR      67  37  33 VRB6      30.16F
AKRON          PTSUNNY   63  37  38 W5        30.15F
BURLINGTON     FAIR      63  47  55 NE13      30.15F
WRAY           FAIR      72  37  28 W3        30.13F
YUMA           FAIR      64  21  19 NW7       30.13F
STERLING       CLOUDY    66  39  37 CALM      30.12F
HOLYOKE        NOT AVBL
FORT MORGAN    LGT RAIN  63  38  40 NE5       30.16S
$$

COZ086-089-092>099-212200-
...SOUTHEAST COLORADO...

CITY           SKY/WX    TMP DP  RH WIND       PRES   REMARKS
PUEBLO         FAIR      71  33  24 E10       30.10F
LA JUNTA       FAIR      73  38  27 VRB7      30.10F
LAMAR          FAIR      72  43  35 VRB5      30.08F
SPRINGFIELD      N/A     65  43  44 S16G28    30.09F
$$




USA.gov is the U.S. government's official web portal to all federal, state and local government web resources and services.